Monroe, MI

5:57 AM EST on January 18, 2018 (GMT -0500)
Custer

Weather History for KTTF - November, 2013

Change the Weather History Date:

Thursday, November 14, 2013

  Actual Average Record
Temperature  
Mean Temperature 40 °F -  
Max Temperature 51 °F 45 °F 72 °F (1989)
Min Temperature 30 °F 31 °F 14 °F (1986)
Degree Days  
Heating Degree Days 24    
Moisture  
Dew Point 20 °F    
Average Humidity 46    
Maximum Humidity 69    
Minimum Humidity 24    
Precipitation  
Precipitation 0.00 in - - ()
Sea Level Pressure  
Sea Level Pressure 30.09 in    
Wind  
Wind Speed 16 mph (SW)    
Max Wind Speed 22 mph    
Max Gust Speed 31 mph    
Visibility 10 miles    
Events      
Averages and records for this station are not official NWS values.
T = Trace of Precipitation, MM = Missing Value Source: NWS Daily Summary

Daily Weather History Graph

Daily Weather History Graph

Search for Another Location

Airport or City:

Trip Planner

Search our weather history database for the weather conditions in past years. The results will help you decide how hot, cold, wet, or windy it might be!

Date:

Astronomy

Nov. 14, 2013 Rise Set
Actual Time 7:22 AM EST 5:13 PM EST
Civil Twilight 6:52 AM EST 5:43 PM EST
Nautical Twilight 6:18 AM EST 6:17 PM EST
Astronomical Twilight 5:45 AM EST 6:49 PM EST
Moon 3:36 PM EST (11/14) 4:14 AM EST (11/14)
Length of Visible Light 10h 50m
Length of Day
9h 50m
Waxing Gibbous, 91% of the Moon is Illuminated
Nov 14
Waxing Gibbous
Nov 17
Full
Nov 25
Last Quarter
Dec 2
New
Dec 9
First Quarter

Hourly Weather History & Observations

Time (EST) Temp. Windchill Dew Point Humidity Pressure Visibility Wind Dir Wind Speed Gust Speed Precip Events Conditions
12:14 AM 33.8 °F 22.5 °F 17.6 °F 52% 30.17 in 10.0 mi SW 19.6 mph 31.1 mph N/A   Clear
12:34 AM 33.8 °F 22.5 °F 17.6 °F 52% 30.17 in 10.0 mi SW 19.6 mph 24.2 mph N/A   Clear
12:54 AM 33.8 °F 23.9 °F 19.4 °F 56% 30.18 in 10.0 mi WSW 15.0 mph 25.3 mph N/A   Clear
1:14 AM 32.0 °F 19.8 °F 19.4 °F 60% 30.18 in 10.0 mi WSW 20.7 mph 24.2 mph N/A   Clear
1:34 AM 32.0 °F 19.8 °F 19.4 °F 60% 30.19 in 10.0 mi WSW 20.7 mph 24.2 mph N/A   Clear
1:54 AM 32.0 °F 20.1 °F 19.4 °F 60% 30.19 in 10.0 mi WSW 19.6 mph 26.5 mph N/A   Clear
2:14 AM 32.0 °F 20.1 °F 19.4 °F 60% 30.19 in 10.0 mi WSW 19.6 mph 24.2 mph N/A   Clear
2:34 AM 30.2 °F 19.8 °F 19.4 °F 64% 30.19 in 10.0 mi WSW 13.8 mph 23.0 mph N/A   Clear
2:55 AM 30.2 °F 19.3 °F 19.4 °F 64% 30.19 in 10.0 mi WSW 15.0 mph - N/A   Clear
3:15 AM 30.2 °F 20.2 °F 19.4 °F 64% 30.19 in 10.0 mi SW 12.7 mph 18.4 mph N/A   Clear
3:35 AM 30.2 °F 20.8 °F 19.4 °F 64% 30.18 in 10.0 mi SW 11.5 mph 18.4 mph N/A   Clear
3:55 AM 30.2 °F 20.2 °F 19.4 °F 64% 30.18 in 10.0 mi SW 12.7 mph 18.4 mph N/A   Clear
4:15 AM 30.2 °F 20.8 °F 19.4 °F 64% 30.18 in 10.0 mi SW 11.5 mph 17.3 mph N/A   Clear
4:35 AM 30.2 °F 20.8 °F 19.4 °F 64% 30.18 in 10.0 mi SW 11.5 mph 16.1 mph N/A   Clear
4:55 AM 30.2 °F 20.8 °F 21.2 °F 69% 30.17 in 10.0 mi SW 11.5 mph 18.4 mph N/A   Clear
5:16 AM 30.2 °F 20.2 °F 21.2 °F 69% 30.17 in 10.0 mi SW 12.7 mph - N/A   Clear
5:36 AM 30.2 °F 21.3 °F 21.2 °F 69% 30.16 in 10.0 mi SW 10.4 mph - N/A   Clear
5:56 AM 30.2 °F 20.2 °F 21.2 °F 69% 30.16 in 10.0 mi SW 12.7 mph - N/A   Clear
6:16 AM 30.2 °F 20.2 °F 21.2 °F 69% 30.15 in 10.0 mi SW 12.7 mph 20.7 mph N/A   Clear
6:36 AM 30.2 °F 20.2 °F 21.2 °F 69% 30.15 in 10.0 mi SW 12.7 mph 18.4 mph N/A   Clear
6:56 AM 30.2 °F 19.8 °F 21.2 °F 69% 30.14 in 10.0 mi SW 13.8 mph 19.6 mph N/A   Clear
7:16 AM 30.2 °F 20.8 °F 21.2 °F 69% 30.14 in 10.0 mi SW 11.5 mph 19.6 mph N/A   Clear
7:36 AM 32.0 °F 21.6 °F 21.2 °F 64% 30.14 in 10.0 mi SW 15.0 mph - N/A   Clear
7:56 AM 32.0 °F 22.1 °F 21.2 °F 64% 30.15 in 10.0 mi SW 13.8 mph - N/A   Clear
8:16 AM 33.8 °F 24.3 °F 21.2 °F 60% 30.14 in 10.0 mi SW 13.8 mph - N/A   Clear
8:37 AM 33.8 °F 23.9 °F 21.2 °F 60% 30.14 in 10.0 mi SW 15.0 mph 21.9 mph N/A   Clear
8:57 AM 35.6 °F 25.9 °F 21.2 °F 56% 30.14 in 10.0 mi SW 16.1 mph 24.2 mph N/A   Clear
9:17 AM 35.6 °F 24.5 °F 21.2 °F 56% 30.14 in 10.0 mi SW 20.7 mph 24.2 mph N/A   Clear
9:32 AM 37.4 °F 27.8 °F 21.2 °F 52% 30.14 in 10.0 mi WSW 17.3 mph 21.9 mph N/A   Clear
9:52 AM 37.4 °F 26.9 °F 21.2 °F 52% 30.15 in 10.0 mi WSW 20.7 mph 25.3 mph N/A   Clear
10:12 AM 39.2 °F 29.6 °F 21.2 °F 49% 30.14 in 10.0 mi SW 19.6 mph 27.6 mph N/A   Clear
10:32 AM 39.2 °F 30.5 °F 21.2 °F 49% 30.13 in 10.0 mi WSW 16.1 mph 25.3 mph N/A   Clear
10:52 AM 41.0 °F 33.5 °F 21.2 °F 45% 30.13 in 10.0 mi SW 13.8 mph 24.2 mph N/A   Clear
11:12 AM 42.8 °F 34.5 °F 21.2 °F 42% 30.12 in 10.0 mi SW 18.4 mph 23.0 mph N/A   Clear
11:32 AM 42.8 °F 36.2 °F 21.2 °F 42% 30.11 in 10.0 mi SW 12.7 mph 24.2 mph N/A   Clear
11:52 AM 44.6 °F 36.1 °F 21.2 °F 39% 30.10 in 10.0 mi SW 21.9 mph 27.6 mph N/A   Clear
12:13 PM 44.6 °F 37.4 °F 21.2 °F 39% 30.08 in 10.0 mi SW 16.1 mph 27.6 mph N/A   Clear
12:33 PM 46.4 °F 39.5 °F 19.4 °F 34% 30.07 in 10.0 mi SW 17.3 mph 23.0 mph N/A   Clear
12:53 PM 48.2 °F - 19.4 °F 32% 30.06 in 10.0 mi SW 18.4 mph 21.9 mph N/A   Clear
1:13 PM 48.2 °F - 17.6 °F 30% 30.05 in 10.0 mi SW 20.7 mph 25.3 mph N/A   Clear
1:33 PM 50.0 °F - 17.6 °F 28% 30.04 in 10.0 mi SW 19.6 mph 26.5 mph N/A   Clear
1:53 PM 50.0 °F - 17.6 °F 28% 30.03 in 10.0 mi SW 12.7 mph 19.6 mph N/A   Clear
2:13 PM 51.8 °F - 19.4 °F 28% 30.02 in 10.0 mi SSW 13.8 mph 18.4 mph N/A   Clear
2:33 PM 51.8 °F - 17.6 °F 26% 30.02 in 10.0 mi SW 13.8 mph - N/A   Clear
2:54 PM 51.8 °F - 17.6 °F 26% 30.02 in 10.0 mi SW 16.1 mph 23.0 mph N/A   Clear
3:14 PM 51.8 °F - 17.6 °F 26% 30.01 in 10.0 mi SW 13.8 mph 21.9 mph N/A   Clear
3:34 PM 51.8 °F - 15.8 °F 24% 30.01 in 10.0 mi SW 17.3 mph 21.9 mph N/A   Clear
3:54 PM 51.8 °F - 15.8 °F 24% 30.01 in 10.0 mi SW 17.3 mph 24.2 mph N/A   Clear
4:14 PM 51.8 °F - 17.6 °F 26% 30.01 in 10.0 mi SW 10.4 mph - N/A   Clear
4:34 PM 51.8 °F - 15.8 °F 24% 30.01 in 10.0 mi SSW 9.2 mph 12.7 mph N/A   Clear
4:54 PM 48.2 °F - 17.6 °F 30% 30.01 in 10.0 mi SSW 10.4 mph - N/A   Clear
5:14 PM 48.2 °F - 17.6 °F 30% 30.02 in 10.0 mi SSW 11.5 mph 17.3 mph N/A   Clear
5:34 PM 46.4 °F 40.4 °F 19.4 °F 34% 30.02 in 10.0 mi SSW 13.8 mph 18.4 mph N/A   Clear
5:54 PM 46.4 °F 40.1 °F 19.4 °F 34% 30.02 in 10.0 mi SSW 15.0 mph 18.4 mph N/A   Clear
6:14 PM 46.4 °F 40.4 °F 19.4 °F 34% 30.02 in 10.0 mi SSW 13.8 mph - N/A   Clear
6:34 PM 46.4 °F 40.4 °F 21.2 °F 37% 30.01 in 10.0 mi SSW 13.8 mph - N/A   Clear
6:55 PM 46.4 °F 39.8 °F 19.4 °F 34% 30.01 in 10.0 mi SSW 16.1 mph 24.2 mph N/A   Clear
7:15 PM 46.4 °F 39.8 °F 17.6 °F 32% 30.01 in 10.0 mi SW 16.1 mph 19.6 mph N/A   Clear
7:35 PM 46.4 °F 40.1 °F 17.6 °F 32% 30.01 in 10.0 mi SSW 15.0 mph 21.9 mph N/A   Clear
7:55 PM 46.4 °F 40.7 °F 17.6 °F 32% 30.01 in 10.0 mi SSW 12.7 mph - N/A   Clear
8:15 PM 44.6 °F 37.8 °F 19.4 °F 37% 30.01 in 10.0 mi SSW 15.0 mph 20.7 mph N/A   Clear
8:35 PM 44.6 °F 38.1 °F 19.4 °F 37% 30.01 in 10.0 mi SSW 13.8 mph - N/A   Clear
8:55 PM 44.6 °F 38.4 °F 19.4 °F 37% 30.02 in 10.0 mi SSW 12.7 mph - N/A   Clear
9:16 PM 44.6 °F 38.4 °F 19.4 °F 37% 30.02 in 10.0 mi SW 12.7 mph 18.4 mph N/A   Clear
9:36 PM 44.6 °F 38.8 °F 19.4 °F 37% 30.03 in 10.0 mi SW 11.5 mph 18.4 mph N/A   Clear
9:56 PM 42.8 °F 36.6 °F 19.4 °F 39% 30.03 in 10.0 mi SW 11.5 mph 17.3 mph N/A   Clear
10:16 PM 42.8 °F 36.6 °F 19.4 °F 39% 30.03 in 10.0 mi SW 11.5 mph - N/A   Clear
10:36 PM 42.8 °F 37.5 °F 21.2 °F 42% 30.03 in 10.0 mi SW 9.2 mph 16.1 mph N/A   Clear
10:56 PM 42.8 °F 37.5 °F 21.2 °F 42% 30.03 in 10.0 mi SW 9.2 mph - N/A   Clear
11:16 PM 42.8 °F 38.0 °F 21.2 °F 42% 30.04 in 10.0 mi SW 8.1 mph - N/A   Clear
11:36 PM 41.0 °F 35.8 °F 21.2 °F 45% 30.04 in 10.0 mi SW 8.1 mph - N/A   Clear
11:56 PM 41.0 °F 34.7 °F 21.2 °F 45% 30.04 in 10.0 mi SW 10.4 mph - N/A   Clear